Charlevoix, MI

10:05 PM EST on February 20, 2017 (GMT -0500)
Charlevoix Municipal

Weather History for KCVX - December, 2012

Change the Weather History Date:

Sunday, December 23, 2012

  Actual Average Record
Temperature  
Mean Temperature 29 °F -  
Max Temperature 32 °F 28 °F 58 °F (2015)
Min Temperature 26 °F 19 °F 11 °F (2013)
Degree Days  
Heating Degree Days 36    
Moisture  
Dew Point 20 °F    
Average Humidity 71    
Maximum Humidity 80    
Minimum Humidity 64    
Precipitation  
Precipitation 0.00 in - - ()
Sea Level Pressure  
Sea Level Pressure 29.96 in    
Wind  
Wind Speed 14 mph (NW)    
Max Wind Speed 21 mph    
Max Gust Speed 28 mph    
Visibility 10 miles    
Events      
Averages and records for this station are not official NWS values.
T = Trace of Precipitation, MM = Missing Value Source: NWS Daily Summary

Daily Weather History Graph

Daily Weather History Graph

Search for Another Location

Airport or City:

Trip Planner

Search our weather history database for the weather conditions in past years. The results will help you decide how hot, cold, wet, or windy it might be!

Date:

Astronomy

Dec. 23, 2012 Rise Set
Actual Time 8:18 AM EST 5:02 PM EST
Civil Twilight 7:44 AM EST 5:36 PM EST
Nautical Twilight 7:06 AM EST 6:14 PM EST
Astronomical Twilight 6:30 AM EST 6:50 PM EST
Moon 1:58 PM EST (12/23) 3:54 AM EST (12/23)
Length of Visible Light 9h 52m
Length of Day
8h 43m
Waxing Gibbous, 81% of the Moon is Illuminated
Dec 23
Waxing Gibbous
Dec 28
Full
Jan 4
Last Quarter
Jan 11
New
Jan 18
First Quarter

Hourly Weather History & Observations

Time (EST) Temp. Windchill Dew Point Humidity Pressure Visibility Wind Dir Wind Speed Gust Speed Precip Events Conditions
12:39 AM 32.0 °F 21.2 °F 23.0 °F 69% 29.86 in 10.0 mi West 16.1 mph 23.0 mph N/A   Scattered Clouds
12:59 AM 32.0 °F 20.8 °F 23.0 °F 69% 29.86 in 10.0 mi West 17.3 mph 24.2 mph N/A   Mostly Cloudy
1:18 AM 32.0 °F 21.6 °F 23.0 °F 69% 29.86 in 10.0 mi WNW 15.0 mph 23.0 mph N/A   Scattered Clouds
1:59 AM 32.0 °F 22.1 °F 23.0 °F 69% 29.86 in 10.0 mi WNW 13.8 mph 21.9 mph N/A   Mostly Cloudy
2:39 AM 32.0 °F 21.2 °F 23.0 °F 69% 29.87 in 10.0 mi WNW 16.1 mph 21.9 mph N/A   Overcast
2:59 AM 30.2 °F 20.2 °F 21.2 °F 69% 29.86 in 10.0 mi WNW 12.7 mph 18.4 mph N/A   Overcast
3:17 AM 32.0 °F 23.6 °F 24.8 °F 75% 29.87 in 10.0 mi NW 10.4 mph 16.1 mph N/A   Overcast
3:37 AM 32.0 °F 23.6 °F 24.8 °F 75% 29.86 in 10.0 mi NW 10.4 mph 17.3 mph N/A   Overcast
3:59 AM 32.0 °F 22.1 °F 24.8 °F 75% 29.86 in 10.0 mi NW 13.8 mph - N/A   Overcast
4:45 AM 32.0 °F 20.8 °F 26.6 °F 80% 29.86 in 10.0 mi NW 17.3 mph 21.9 mph N/A   Overcast
4:59 AM 32.0 °F 19.8 °F 24.8 °F 75% 29.86 in 10.0 mi NNW 20.7 mph 26.5 mph N/A   Overcast
5:18 AM 32.0 °F 21.6 °F 24.8 °F 75% 29.87 in 10.0 mi NNW 15.0 mph 25.3 mph N/A   Overcast
5:39 AM 30.2 °F 18.1 °F 23.0 °F 75% 29.87 in 10.0 mi NNW 18.4 mph 26.5 mph N/A   Overcast
5:58 AM 30.2 °F 18.1 °F 23.0 °F 75% 29.89 in 10.0 mi NNW 18.4 mph 24.2 mph N/A   Overcast
6:39 AM 30.2 °F 19.3 °F 21.2 °F 69% 29.90 in 10.0 mi NNW 15.0 mph 20.7 mph N/A   Overcast
8:23 AM 28.4 °F 16.6 °F 21.2 °F 74% 29.93 in 10.0 mi NNW 16.1 mph 20.7 mph N/A   Overcast
8:59 AM 28.4 °F 15.1 °F 19.4 °F 69% 29.94 in 10.0 mi NNW 20.7 mph 26.5 mph N/A   Overcast
9:39 AM 26.6 °F 13.4 °F 17.6 °F 69% 29.96 in 10.0 mi NNW 18.4 mph 26.5 mph N/A   Overcast
10:06 AM 26.6 °F 13.8 °F 15.8 °F 64% 29.97 in 10.0 mi NW 17.3 mph 27.6 mph N/A   Overcast
10:38 AM 26.6 °F 14.3 °F 15.8 °F 64% 29.97 in 10.0 mi NW 16.1 mph 20.7 mph N/A   Overcast
11:18 AM 26.6 °F 14.7 °F 15.8 °F 64% 29.97 in 10.0 mi NNW 15.0 mph 21.9 mph N/A   Overcast
11:35 AM 26.4 °F 16.0 °F 16.3 °F 66% 29.97 in 10.0 mi NNW 11.5 mph 21.9 mph N/A   Overcast
11:36 AM 26.4 °F 16.0 °F 16.3 °F 66% 29.97 in 10.0 mi NW 11.5 mph 21.9 mph N/A   Overcast
12:19 PM 26.6 °F 16.2 °F 15.8 °F 64% 29.97 in 10.0 mi NW 11.5 mph 19.6 mph N/A   Overcast
12:41 PM 26.6 °F 15.2 °F 15.8 °F 64% 29.97 in 10.0 mi NNW 13.8 mph 18.4 mph N/A   Overcast
1:01 PM 26.6 °F 15.7 °F 17.6 °F 69% 29.97 in 10.0 mi NNW 12.7 mph 21.9 mph N/A   Overcast
1:42 PM 26.6 °F 15.2 °F 19.4 °F 74% 29.96 in 10.0 mi NW 13.8 mph 19.6 mph N/A   Overcast
2:00 PM 26.6 °F 14.7 °F 19.4 °F 74% 29.97 in 10.0 mi WNW 15.0 mph 20.7 mph N/A   Overcast
2:18 PM 26.6 °F 15.7 °F 19.4 °F 74% 29.97 in 10.0 mi NW 12.7 mph 18.4 mph N/A   Overcast
2:30 PM 26.4 °F 15.0 °F 19.2 °F 74% 29.97 in 10.0 mi WNW 13.8 mph - N/A   Overcast
2:35 PM 26.4 °F 17.3 °F 19.0 °F 74% 29.97 in 10.0 mi NW 9.2 mph - N/A   Overcast
2:55 PM 26.4 °F 15.0 °F 17.8 °F 70% 29.97 in 10.0 mi WNW 13.8 mph 20.7 mph N/A   Overcast
3:14 PM 26.4 °F 16.0 °F 19.0 °F 74% 29.97 in 10.0 mi NW 11.5 mph 17.3 mph N/A   Overcast
3:35 PM 26.4 °F 15.5 °F 18.5 °F 72% 29.98 in 10.0 mi WNW 12.7 mph - N/A   Overcast
3:55 PM 26.2 °F 15.8 °F 18.7 °F 73% 29.99 in 10.0 mi NW 11.5 mph - N/A   Overcast
4:15 PM 26.2 °F 16.4 °F 16.9 °F 68% 29.99 in 10.0 mi NW 10.4 mph 20.7 mph N/A   Overcast
4:35 PM 26.2 °F 16.4 °F 18.0 °F 71% 29.99 in 10.0 mi NNW 10.4 mph - N/A   Overcast
4:55 PM 26.2 °F 16.4 °F 17.6 °F 70% 30.00 in 10.0 mi NW 10.4 mph 18.4 mph N/A   Overcast
5:15 PM 26.2 °F 17.1 °F 17.1 °F 68% 30.00 in 10.0 mi NW 9.2 mph - N/A   Overcast
5:34 PM 26.6 °F 16.8 °F 18.7 °F 72% 30.01 in 10.0 mi NW 10.4 mph 18.4 mph N/A   Overcast
5:55 PM 26.6 °F 15.7 °F 18.7 °F 72% 30.02 in 10.0 mi NW 12.7 mph - N/A   Overcast
6:15 PM 26.4 °F 15.5 °F 18.1 °F 71% 30.02 in 10.0 mi NW 12.7 mph 17.3 mph N/A   Overcast
6:35 PM 26.6 °F 15.2 °F 18.9 °F 73% 30.02 in 10.0 mi WNW 13.8 mph - N/A   Overcast
6:54 PM 26.6 °F 17.5 °F 17.8 °F 69% 30.02 in 10.0 mi NW 9.2 mph 19.6 mph N/A   Overcast
7:15 PM 26.6 °F 17.5 °F 18.1 °F 70% 30.02 in 10.0 mi NNW 9.2 mph 20.7 mph N/A   Overcast
7:35 PM 27.0 °F 18.0 °F 18.1 °F 69% 30.03 in 10.0 mi NW 9.2 mph 16.1 mph N/A   Overcast
7:54 PM 27.1 °F 16.4 °F 18.5 °F 70% 30.03 in 10.0 mi NNW 12.7 mph 16.1 mph N/A   Overcast
8:14 PM 27.3 °F 17.7 °F 18.0 °F 68% 30.03 in 10.0 mi NNW 10.4 mph - N/A   Overcast
8:35 PM 27.5 °F 18.0 °F 19.9 °F 73% 30.03 in 10.0 mi NW 10.4 mph - N/A   Overcast
8:54 PM 27.5 °F 18.0 °F 19.8 °F 73% 30.03 in 10.0 mi WNW 10.4 mph 16.1 mph N/A   Overcast
9:15 PM 27.5 °F 19.3 °F 18.3 °F 68% 30.03 in 10.0 mi WNW 8.1 mph 17.3 mph N/A   Overcast
9:54 PM 27.7 °F 18.8 °F 19.4 °F 71% 30.03 in 10.0 mi WNW 9.2 mph - N/A   Overcast
10:15 PM 27.5 °F 18.6 °F 19.6 °F 72% 30.03 in 10.0 mi WNW 9.2 mph - N/A   Overcast
10:34 PM 27.7 °F 18.8 °F 20.3 °F 74% 30.02 in 10.0 mi WNW 9.2 mph - N/A   Overcast
10:55 PM 27.5 °F 19.3 °F 19.8 °F 73% 30.02 in 10.0 mi WNW 8.1 mph - N/A   Overcast
11:14 PM 27.3 °F 19.1 °F 20.1 °F 74% 30.02 in 10.0 mi WNW 8.1 mph - N/A   Overcast
11:35 PM 27.5 °F 21.1 °F 20.7 °F 75% 30.01 in 10.0 mi NNW 5.8 mph - N/A   Overcast
11:54 PM 27.5 °F 18.6 °F 20.7 °F 75% 30.01 in 10.0 mi NW 9.2 mph - N/A   Overcast